GLOBALSTAR M001 1 25162U 98008A 25343.06475067 -.00000090 00000+0 54826-4 0 9991 2 25162 52.0004 184.2237 0000242 271.4720 257.2618 12.38223203265377 GLOBALSTAR M004 1 25163U 98008B 25343.17160550 -.00000019 00000+0 46570-3 0 9999 2 25163 52.0001 240.3119 0003051 335.8093 179.9834 12.63410679283808 GLOBALSTAR M002 1 25164U 98008C 25342.94752769 -.00000070 00000+0 11844-3 0 9996 2 25164 51.9977 162.0200 0002688 99.0079 261.1045 11.61514643204374 GLOBALSTAR M003 1 25165U 98008D 25343.18483618 -.00000188 00000+0 -10560-2 0 9992 2 25165 51.9929 43.8308 0007615 284.9011 91.5314 12.12043509254445 GLOBALSTAR M014 1 25306U 98023A 25342.67389954 -.00000092 00000+0 -27790-3 0 9995 2 25306 51.9847 82.2589 0000235 6.5146 142.0259 11.65483814211512 GLOBALSTAR M006 1 25307U 98023B 25342.73440605 -.00000085 00000+0 -19649-3 0 9990 2 25307 51.9909 141.1040 0004199 75.1513 27.7777 11.58178746237050 GLOBALSTAR M015 1 25308U 98023C 25343.12428441 -.00000033 00000+0 92676-3 0 9992 2 25308 51.9821 246.6251 0013355 29.4466 113.1962 11.48862766214188 GLOBALSTAR M008 1 25309U 98023D 25343.12977174 -.00000074 00000+0 17101-3 0 9990 2 25309 51.9989 50.8459 0003027 175.4682 196.3791 12.36076610259484 GLOBALSTAR M023 1 25621U 99004A 25343.18469299 -.00000075 00000+0 15819-3 0 9992 2 25621 52.0102 240.5667 0010098 149.5319 15.7321 12.62509904237838 GLOBALSTAR M040 1 25622U 99004B 25343.14444361 -.00000045 00000+0 33146-3 0 9992 2 25622 51.9916 245.1015 0001776 58.9128 87.6287 12.62024976237348 GLOBALSTAR M036 1 25623U 99004C 25342.93376931 -.00000084 00000+0 -20323-4 0 9994 2 25623 51.9942 139.7183 0010878 30.3820 107.9359 11.86618273199727 GLOBALSTAR M038 1 25624U 99004D 25343.19157772 -.00000053 00000+0 34596-3 0 9995 2 25624 51.9987 287.5748 0002421 55.1214 52.4678 12.32537089223951 GLOBALSTAR M022 1 25649U 99012A 25342.98719977 -.00000086 00000+0 11227-4 0 9991 2 25649 52.0008 175.7122 0003275 137.4661 29.4279 12.02507949197406 GLOBALSTAR M041 1 25650U 99012B 25342.95581772 -.00000071 00000+0 18398-3 0 9999 2 25650 52.0036 62.5751 0000601 308.4327 51.6455 11.96681259199201 GLOBALSTAR M046 1 25651U 99012C 25342.63570793 -.00000158 00000+0 -76693-3 0 9995 2 25651 52.0041 120.4325 0001515 212.7513 161.7388 12.09417767204771 GLOBALSTAR M037 1 25652U 99012D 25343.06040104 -.00000047 00000+0 31584-3 0 9998 2 25652 52.0025 11.4976 0001969 206.1240 176.1435 12.62457705233367 GLOBALSTAR M045 1 25676U 99019A 25342.81692352 -.00000080 00000+0 12392-3 0 9994 2 25676 51.9937 167.5339 0001085 102.1993 271.9771 12.27070321214832 GLOBALSTAR M019 1 25677U 99019B 25343.08348589 -.00000079 00000+0 11525-3 0 9990 2 25677 51.9887 309.4484 0001483 331.3841 107.8587 12.13875691206386 GLOBALSTAR M044 1 25678U 99019C 25343.20863353 -.00000032 00000+0 72152-3 0 9998 2 25678 51.9983 282.3560 0006671 18.8935 121.1036 11.90260906192162 GLOBALSTAR M042 1 25679U 99019D 25343.19148817 -.00000048 00000+0 41125-3 0 9991 2 25679 52.0025 276.9089 0002887 313.9935 185.6180 12.22093455206655 GLOBALSTAR M025 1 25770U 99031A 25343.12792580 -.00000071 00000+0 -10484-3 0 9993 2 25770 51.9801 114.0052 0003108 87.1310 83.7488 11.22558701501356 GLOBALSTAR M049 1 25771U 99031B 25342.89868927 -.00000112 00000+0 -16350-2 0 9999 2 25771 51.9837 158.0814 0002127 331.8175 28.2506 11.12124303136869 GLOBALSTAR M047 1 25772U 99031C 25342.82156215 -.00000078 00000+0 -23204-3 0 9991 2 25772 51.9800 138.5396 0016209 198.4303 161.5917 11.31931807490882 GLOBALSTAR M052 1 25773U 99031D 25343.11188528 -.00000038 00000+0 92950-3 0 9996 2 25773 51.9870 263.8133 0003180 88.2564 285.6820 11.15062527498021 GLOBALSTAR M035 1 25851U 99037A 25343.13386374 -.00000068 00000+0 -18266-3 0 9992 2 25851 51.9983 24.8152 0013504 264.0468 107.3948 11.04540602115599 GLOBALSTAR M032 1 25852U 99037B 25342.86992075 -.00000006 00000+0 19648-2 0 9998 2 25852 51.9929 198.5541 0013680 98.7550 261.4799 11.19075185154347 GLOBALSTAR M051 1 25853U 99037C 25343.16741541 -.00000107 00000+0 -87049-3 0 9997 2 25853 51.9821 338.7720 0000118 125.1828 234.8993 11.42204250152386 GLOBALSTAR M030 1 25854U 99037D 25342.71019151 -.00000074 00000+0 27174-4 0 9999 2 25854 51.9856 134.8809 0003311 22.2322 337.8638 11.55109944170212 GLOBALSTAR M048 1 25872U 99041A 25343.11641950 -.00000034 00000+0 96990-3 0 9994 2 25872 51.9380 280.6929 0013314 124.4104 332.2925 11.33860748144822 GLOBALSTAR M026 1 25873U 99041B 25342.70587253 -.00000020 00000+0 16112-2 0 9996 2 25873 51.9976 141.8860 0001911 160.4824 212.4316 11.06848767167819 GLOBALSTAR M043 1 25874U 99041C 25343.19010137 -.00000053 00000+0 46433-3 0 9999 2 25874 51.9431 35.1326 0013454 247.1112 148.7782 11.25696386142580 GLOBALSTAR M028 1 25875U 99041D 25343.10655234 -.00000051 00000+0 31912-3 0 9998 2 25875 51.9644 31.4809 0063631 91.6276 269.1875 12.50592504212065 GLOBALSTAR M024 1 25883U 99043A 25343.14702130 -.00000119 00000+0 -19085-2 0 9993 2 25883 52.0045 345.8506 0001524 21.2665 54.9642 11.10167104134290 GLOBALSTAR M027 1 25884U 99043B 25343.18491193 -.00000107 00000+0 -16425-2 0 9994 2 25884 52.0229 68.7035 0020946 272.7620 87.0776 11.04372276160572 GLOBALSTAR M054 1 25885U 99043C 25342.93536353 -.00000068 00000+0 74037-4 0 9995 2 25885 52.0101 167.2341 0005996 111.7900 58.8667 11.39224732138962 GLOBALSTAR M053 1 25886U 99043D 25342.80698001 -.00000069 00000+0 -78328-5 0 9991 2 25886 51.9964 124.3233 0003629 39.4789 110.3106 11.27669031139149 GLOBALSTAR M058 1 25907U 99049A 25343.05368303 -.00000060 00000+0 33498-3 0 9995 2 25907 51.9967 2.2319 0001767 245.5342 114.5309 11.93206805562411 GLOBALSTAR M050 1 25908U 99049B 25343.03944544 -.00000083 00000+0 57687-4 0 9993 2 25908 52.0014 356.8826 0009111 21.0917 5.9358 12.07461993169310 GLOBALSTAR M033 1 25909U 99049C 25343.06253257 -.00000076 00000+0 14643-3 0 9997 2 25909 51.9896 216.5739 0013146 265.6887 94.2458 12.20294151557090 GLOBALSTAR M055 1 25910U 99049D 25343.05228420 -.00000060 00000+0 29671-3 0 9992 2 25910 52.0004 218.8348 0007558 127.1261 233.0282 12.29437618189796 GLOBALSTAR M057 1 25943U 99058A 25342.99587994 -.00000036 00000+0 51381-3 0 9990 2 25943 51.9965 212.0953 0003153 28.7219 331.3804 12.24831391188354 GLOBALSTAR M059 1 25944U 99058B 25342.58627257 -.00000077 00000+0 11957-3 0 9993 2 25944 52.0019 95.3609 0000649 114.2047 258.8397 11.99988182594986 GLOBALSTAR M056 1 25945U 99058C 25342.75618319 -.00000134 00000+0 -54729-3 0 9991 2 25945 51.9968 92.3865 0001584 147.7523 18.7868 12.04781448183666 GLOBALSTAR M031 1 25946U 99058D 25343.16449808 -.00000143 00000+0 -53716-3 0 9998 2 25946 51.9980 333.1207 0001189 168.6523 272.3812 12.16044171185836 GLOBALSTAR M039 1 25961U 99062A 25342.67737966 -.00000077 00000+0 14991-3 0 9997 2 25961 51.9845 97.2455 0002581 34.4967 325.6066 12.62338729202250 GLOBALSTAR M034 1 25962U 99062B 25343.11097406 -.00000058 00000+0 36202-3 0 9994 2 25962 51.9884 276.6850 0014878 13.7110 359.5577 11.79453142159032 GLOBALSTAR M029 1 25963U 99062C 25343.20658560 -.00000046 00000+0 49939-3 0 9997 2 25963 51.9827 341.5707 0002567 98.7153 343.5122 11.99904020190138 GLOBALSTAR M061 1 25964U 99062D 25343.12572509 -.00000099 00000+0 -30969-3 0 9999 2 25964 51.9791 103.0013 0004962 293.1473 239.3308 11.76778118141773 GLOBALSTAR M063 1 26081U 00008A 25343.08872986 -.00000013 00000+0 10160-2 0 9994 2 26081 51.9986 10.9410 0004460 288.5104 100.5702 11.86179283178337 GLOBALSTAR M062 1 26082U 00008B 25343.20366603 -.00000047 00000+0 36625-3 0 9995 2 26082 51.9865 301.1062 0007228 121.6074 345.0160 12.43479524518393 GLOBALSTAR M060 1 26083U 00008C 25343.14253351 -.00000064 00000+0 26389-3 0 9999 2 26083 52.0032 286.0476 0003507 108.1954 265.7631 12.17669485173683 GLOBALSTAR M064 1 26084U 00008D 25343.07016463 -.00000066 00000+0 24468-3 0 9991 2 26084 52.0024 107.7547 0001929 66.0730 294.0305 11.88539456187895 GLOBALSTAR M065 1 31571U 07020A 25343.16965398 -.00000061 00000+0 23717-3 0 9990 2 31571 51.9911 53.6702 0009436 338.1572 42.2469 12.62015745855502 GLOBALSTAR M069 1 31573U 07020C 25342.50020352 -.00000095 00000+0 -25061-4 0 9994 2 31573 52.0044 71.8415 0002536 118.8619 255.0928 12.23464063855462 GLOBALSTAR M072 1 31574U 07020D 25343.17038280 -.00000048 00000+0 48848-3 0 9992 2 31574 51.9930 246.1228 0001128 350.4145 161.7062 11.91654107852326 GLOBALSTAR M071 1 31576U 07020F 25342.74305419 -.00000019 00000+0 71421-3 0 9998 2 31576 52.0058 101.6932 0001774 109.5174 39.0360 12.18262887516213 GLOBALSTAR M067 1 32263U 07048A 25343.17741181 -.00000072 00000+0 19019-3 0 9994 2 32263 51.9725 243.8916 0001722 25.7327 139.1741 12.40682590831205 GLOBALSTAR M070 1 32264U 07048B 25343.12833362 -.00000075 00000+0 16012-3 0 9996 2 32264 51.9767 315.5569 0000291 77.0350 3.9851 12.62327053835768 GLOBALSTAR M066 1 32265U 07048C 25343.16733854 -.00000085 00000+0 76487-4 0 9990 2 32265 51.9587 243.4050 0005427 13.8105 150.6877 12.30382783836838 GLOBALSTAR M068 1 32266U 07048D 25342.85494368 -.00000059 00000+0 24811-3 0 9994 2 32266 51.9867 129.8041 0001867 132.6579 31.7885 12.62834975839624 GLOBALSTAR M079 1 37188U 10054A 25343.17769094 -.00000088 00000+0 89006-4 0 9990 2 37188 52.0056 327.0876 0000385 11.5605 68.4196 12.62269017698557 GLOBALSTAR M074 1 37189U 10054B 25343.12442800 -.00000090 00000+0 78947-4 0 9994 2 37189 52.0033 326.5448 0000504 54.4047 23.1888 12.62263978699154 GLOBALSTAR M076 1 37190U 10054C 25343.15165360 -.00000088 00000+0 86230-4 0 9993 2 37190 52.0046 326.6503 0000550 35.0694 45.0972 12.62267886698874 GLOBALSTAR M077 1 37191U 10054D 25343.13433266 -.00000068 00000+0 18551-3 0 9993 2 37191 52.0110 302.0687 0000708 10.8109 76.6581 11.68138647698935 GLOBALSTAR M075 1 37192U 10054E 25343.24319781 -.00000090 00000+0 77368-4 0 9998 2 37192 51.9967 8.5289 0000321 104.3510 333.5894 12.62270283697957 GLOBALSTAR M073 1 37193U 10054F 25343.15022175 -.00000076 00000+0 15695-3 0 9995 2 37193 52.0069 282.7683 0000700 36.3111 336.7951 12.62264971699935 GLOBALSTAR M083 1 37739U 11033A 25343.11337374 -.00000075 00000+0 15806-3 0 9998 2 37739 51.9849 231.3693 0000824 58.1907 89.3664 12.62265437668945 GLOBALSTAR M088 1 37740U 11033B 25342.76088655 -.00000109 00000+0 -27343-4 0 9994 2 37740 52.0192 138.4071 0001081 105.3970 358.8170 12.62271005664443 GLOBALSTAR M091 1 37741U 11033C 25343.10575200 -.00000101 00000+0 17126-4 0 9990 2 37741 51.9994 100.6046 0000774 125.2143 46.2163 12.62262337665276 GLOBALSTAR M085 1 37742U 11033D 25343.13674743 -.00000079 00000+0 13870-3 0 9991 2 37742 52.0146 51.6361 0000428 150.3815 222.6693 12.62267192665793 GLOBALSTAR M081 1 37743U 11033E 25343.16425794 -.00000079 00000+0 13612-3 0 9999 2 37743 51.9974 54.2033 0000385 120.0833 258.5831 12.62270756665941 GLOBALSTAR M089 1 37744U 11033F 25343.04576493 -.00000076 00000+0 15253-3 0 9990 2 37744 51.9954 8.7601 0000554 79.6165 301.0170 12.62262072666774 GLOBALSTAR M084 1 38040U 11080A 25343.08553125 -.00000082 00000+0 12102-3 0 9990 2 38040 52.0005 236.0214 0001168 64.3855 75.9037 12.62266378644754 GLOBALSTAR M080 1 38041U 11080B 25343.13825081 -.00000057 00000+0 26091-3 0 9994 2 38041 52.0052 237.5130 0000640 97.8168 52.1635 12.62264678644888 GLOBALSTAR M082 1 38042U 11080C 25343.00044572 -.00000087 00000+0 94448-4 0 9994 2 38042 52.0052 193.4135 0000851 98.0859 74.9902 12.62266096645570 GLOBALSTAR M092 1 38043U 11080D 25343.20413686 -.00000070 00000+0 19072-3 0 9994 2 38043 52.0094 283.1793 0000648 58.3695 80.3197 12.62268154644051 GLOBALSTAR M090 1 38044U 11080E 25343.02323015 -.00000094 00000+0 54639-4 0 9996 2 38044 52.0099 187.2390 0000899 80.4772 75.1214 12.62265320645699 GLOBALSTAR M086 1 38045U 11080F 25343.04973616 -.00000087 00000+0 91691-4 0 9998 2 38045 51.9872 187.3976 0001319 31.2485 134.2708 12.62280947645643 GLOBALSTAR M097 1 39072U 13005A 25342.72466943 -.00000109 00000+0 -31067-4 0 9999 2 39072 52.0041 103.1187 0000671 107.2093 252.8847 12.62267805592856 GLOBALSTAR M093 1 39073U 13005B 25342.69859287 -.00000094 00000+0 55639-4 0 9996 2 39073 52.0104 96.4735 0000431 117.2882 242.8029 12.62270997592803 GLOBALSTAR M094 1 39074U 13005C 25343.01516076 -.00000088 00000+0 88499-4 0 9993 2 39074 51.9978 9.8172 0000047 78.5574 281.5298 12.62265217594454 GLOBALSTAR M096 1 39075U 13005D 25343.18659744 -.00000084 00000+0 10859-3 0 9992 2 39075 52.0088 57.9444 0000399 141.2680 218.8216 12.62269220593394 GLOBALSTAR M078 1 39076U 13005E 25342.84389492 -.00000116 00000+0 -67448-4 0 9999 2 39076 51.9845 143.2632 0001059 152.7077 207.3845 12.62272387591974 GLOBALSTAR M095 1 39077U 13005F 25342.79092138 -.00000113 00000+0 -52593-4 0 9994 2 39077 52.0055 140.7576 0000703 122.5113 237.5822 12.62267250591827 GLOBALSTAR M087 1 52888U 22064A 25343.12066773 -.00000069 00000+0 19195-3 0 9997 2 52888 52.0007 281.1008 0000471 40.7063 319.3839 12.62261079167139